Theta_e
312 311 311 311 311 311 310 310 310 310 310 310 310 310 310 311 310 302 295 300 306 313 315 306 306 306 305 304 308 308 297 293 294 296 297 303 302 308 313 307 314 323 318 323 332
312 312 312 312 311 311 311 311 311 310 310 310 310 311 311 311 302 297 304 310 311 311 302 301 299 302 297 299 300 299 294 294 299 300 301 303 303 307 308 308 310 320 327 330 333
311 312 312 312 311 311 311 311 311 311 311 310 310 311 311 308 295 294 312 314 313 310 304 303 301 300 294 297 296 294 291 298 300 302 305 303 303 310 307 304 306 313 322 327 330
310 312 311 311 311 311 311 311 310 311 311 310 310 311 310 302 281 299 312 308 311 305 301 298 297 293 291 290 295 290 294 296 299 302 304 303 304 303 308 306 310 308 324 326 326
312 312 311 311 311 311 311 310 311 310 311 311 310 310 304 293 292 302 310 308 302 300 296 294 293 292 288 290 291 290 292 295 298 300 302 305 303 303 307 311 312 311 319 323 325
313 312 311 311 311 311 311 311 311 311 311 311 310 310 299 287 300 301 301 300 299 296 293 294 293 295 291 290 288 291 292 292 294 295 298 299 301 305 305 311 310 309 320 321 321
311 312 311 311 311 311 311 311 311 311 311 311 310 305 296 292 301 301 301 298 298 297 293 296 297 293 291 288 293 291 288 290 292 294 295 300 298 300 306 310 309 308 315 322 323
312 312 311 311 311 312 312 311 311 311 311 310 310 302 291 300 299 299 299 297 299 299 297 299 299 294 291 292 289 286 286 281 287 292 295 296 291 302 307 307 306 306 309 319 322
312 312 311 311 312 312 311 311 311 310 309 309 298 294 286 302 297 299 300 297 299 298 298 299 296 290 290 284 280 280 273 279 284 292 292 294 291 300 306 306 304 305 307 317 319
313 312 312 312 311 311 310 310 307 305 301 302 299 288 290 290 295 297 298 298 294 295 293 292 289 285 284 281 271 271 275 279 283 289 289 290 293 298 303 305 305 302 306 314 316
312 312 311 311 310 310 302 294 289 286 289 285 284 287 289 293 297 294 299 296 294 291 284 288 282 279 280 282 282 280 279 278 283 290 292 291 293 298 302 304 301 301 309 309 307
311 310 311 310 309 306 297 290 290 291 283 289 289 289 291 293 288 294 299 290 287 283 287 283 279 284 286 284 282 281 278 279 287 291 290 291 293 298 301 296 301 306 307 306 304
310 309 310 309 307 298 293 293 297 293 280 284 289 289 290 293 289 290 295 289 284 283 283 281 283 287 285 282 280 282 280 282 284 289 292 291 288 292 295 297 301 302 303 303 303
310 310 309 308 296 295 292 297 296 292 266 276 283 288 291 291 287 295 297 292 288 283 285 283 287 284 282 283 283 278 285 286 285 286 281 291 281 289 292 293 295 297 298 297 297
311 310 309 304 294 292 295 297 293 285 258 280 283 294 290 287 289 293 300 295 288 285 284 282 285 284 281 283 287 283 289 287 286 284 287 287 284 287 291 289 290 291 291 292 293
310 310 308 300 295 294 296 293 287 269 259 270 282 281 278 284 289 291 294 296 294 288 286 285 292 289 287 289 290 292 289 287 287 285 280 285 284 285 289 290 288 288 289 291 291
309 306 301 298 291 294 293 285 269 263 272 269 275 280 278 276 283 286 286 285 282 278 274 283 285 288 292 288 291 289 284 277 276 277 277 284 280 281 287 292 289 286 286 288 291
303 301 298 295 293 292 286 274 261 262 263 278 278 279 273 281 279 283 281 279 286 284 277 273 275 284 290 288 287 285 284 278 272 274 277 282 277 280 288 287 288 287 286 286 286
302 293 291 293 293 290 278 264 263 273 277 276 277 269 270 279 279 280 278 280 283 285 278 277 279 287 289 292 290 286 281 287 279 277 276 278 281 285 288 286 286 285 285 285 285
292 290 290 294 292 284 272 270 273 279 280 279 267 274 267 272 275 273 274 283 283 287 287 283 278 285 286 290 290 287 288 280 280 273 271 277 279 278 282 285 287 285 285 285 286
289 280 291 293 287 276 265 269 277 282 282 278 276 274 275 275 277 274 276 282 286 286 287 286 281 281 286 284 283 283 281 283 282 278 274 274 277 286 284 284 286 288 287 286 286
284 274 290 289 273 258 260 276 281 280 283 281 281 279 276 277 277 271 279 283 287 287 282 285 283 279 282 289 289 287 283 283 277 275 278 278 276 286 284 284 285 289 289 288 288
277 278 289 286 267 267 275 278 281 279 280 280 279 281 282 278 275 278 279 286 287 287 283 285 278 274 278 282 285 283 285 284 282 280 276 274 276 285 284 282 282 282 285 287 286
279 273 277 277 274 270 269 277 277 283 281 283 280 282 280 275 279 277 278 283 286 285 290 287 281 277 274 279 282 278 281 282 278 271 278 278 279 282 282 281 281 281 282 283 284
276 273 275 271 272 273 276 279 277 276 281 283 277 280 278 275 275 274 279 281 284 284 283 283 276 280 281 281 280 277 278 280 277 271 273 278 278 282 283 282 282 282 282 282 282
276 276 277 270 278 277 276 278 278 278 278 278 278 280 280 276 277 275 278 279 278 280 280 281 274 275 277 280 280 278 277 280 280 278 277 278 277 284 285 284 283 283 283 282 283
282 283 282 278 277 273 276 279 279 279 279 282 281 280 277 278 279 280 282 282 281 277 277 275 268 266 273 272 272 271 275 276 280 281 278 274 281 283 284 285 284 284 284 284 283
Wind_Speed
7 6 7 8 8 9 10 10 11 11 12 12 13 13 14 15 13 5 8 10 7 13 11 5 6 6 3 3 3 2 7 18 26 22 7 5 9 5 3 5 2 4 4 7 14
8 8 9 9 10 10 11 11 11 12 12 12 13 14 14 14 5 16 10 14 14 12 5 2 5 5 1 3 4 7 9 24 6 6 8 11 9 1 3 4 4 4 5 12 20
8 10 11 10 11 12 13 14 13 13 13 13 13 14 14 7 6 5 3 14 18 9 2 4 2 3 5 4 4 5 22 11 10 9 8 12 16 4 3 6 6 5 11 14 17
11 12 11 12 11 13 13 14 15 14 14 14 14 14 14 2 8 3 8 2 10 6 3 3 3 3 9 7 6 12 18 12 13 17 10 17 6 14 10 8 5 3 11 15 14
11 11 11 11 13 15 15 15 14 15 15 14 15 13 6 4 10 7 15 17 14 2 4 5 6 5 9 6 10 15 15 13 13 15 17 15 12 12 14 10 7 11 13 13 15
8 9 11 13 14 14 15 16 16 15 16 15 14 13 3 20 5 7 8 6 7 2 4 7 7 7 6 6 13 5 8 14 15 16 8 19 19 5 8 5 7 12 15 16 11
10 9 11 12 14 15 16 16 17 17 17 17 15 5 12 23 6 10 12 7 5 3 4 5 11 6 3 5 12 13 13 16 15 11 8 13 22 25 7 5 6 14 13 17 13
10 11 11 13 14 15 16 16 18 19 18 17 15 3 11 3 5 6 6 7 7 11 14 9 3 5 8 5 6 4 8 16 11 14 9 9 18 18 9 9 6 14 13 11 8
12 12 12 13 14 13 14 17 20 21 18 14 1 4 10 6 4 4 5 4 2 2 5 9 7 7 5 11 9 6 9 11 14 14 7 18 14 14 13 11 7 13 14 9 8
14 13 14 13 13 11 12 17 18 10 4 4 3 1 5 4 3 3 4 9 10 10 4 6 7 8 10 11 15 10 11 11 14 9 20 22 22 10 16 15 14 7 16 5 7
10 10 10 10 8 5 5 5 6 5 5 5 6 5 12 8 4 8 6 8 8 8 12 10 9 17 25 22 17 10 14 12 17 9 10 25 21 12 14 18 14 8 8 6 6
10 10 10 6 2 1 3 3 3 4 9 9 13 10 14 6 8 10 4 7 4 11 10 8 23 25 13 20 20 14 14 19 10 15 15 13 17 17 13 6 9 8 4 6 5
10 9 8 3 5 3 3 4 1 2 1 8 6 5 4 3 6 9 6 3 7 8 16 17 9 16 18 17 21 21 21 19 11 12 16 11 6 9 3 8 9 10 6 7 7
8 6 4 9 3 2 2 1 2 4 7 8 5 3 2 2 7 7 8 7 7 6 7 14 15 18 18 17 21 21 23 14 18 10 12 16 7 6 13 11 7 12 6 6 7
5 4 11 5 4 3 1 2 3 5 5 10 8 0 8 4 8 2 5 6 7 6 4 5 12 19 22 25 20 13 18 18 12 12 5 20 5 9 13 9 10 8 7 6 6
9 11 11 3 3 2 2 3 5 8 6 10 6 8 9 4 4 6 4 4 5 7 4 5 3 9 11 10 18 1 2 10 9 6 6 5 4 8 14 13 8 8 9 6 6
15 11 5 3 1 2 2 4 6 6 5 11 7 9 7 6 7 5 6 8 5 6 6 5 3 2 5 7 11 8 6 3 6 7 3 4 6 3 8 12 13 9 11 6 7
13 9 7 3 1 2 4 7 7 4 5 6 6 14 2 9 5 7 7 8 3 6 4 3 3 4 2 3 4 7 4 3 3 2 4 6 5 4 7 13 16 14 11 9 8
7 3 3 4 2 3 7 7 5 1 6 9 11 6 7 5 4 4 6 9 6 6 5 5 3 2 4 3 0 5 4 2 6 2 5 1 3 6 6 11 13 13 9 8 8
3 3 2 6 3 5 8 4 0 3 6 4 3 2 4 8 8 6 7 4 11 6 5 4 3 4 3 5 3 1 0 3 3 3 5 3 4 5 2 5 7 8 8 8 6
4 5 3 4 5 8 5 2 1 3 3 3 5 5 5 5 4 5 7 4 9 11 11 4 1 5 2 6 2 4 1 1 5 3 4 4 4 6 3 5 7 8 7 7 7
3 4 3 3 7 2 2 2 2 3 3 3 4 5 4 5 5 3 4 3 9 10 11 5 4 4 4 4 5 2 2 2 4 1 4 4 4 5 7 7 8 6 7 6 5
3 2 3 5 4 2 3 2 1 4 3 4 3 3 3 4 6 2 5 5 7 9 7 7 5 3 5 4 3 7 7 4 5 4 6 4 4 5 8 9 7 9 5 5 4
4 3 6 6 0 8 5 3 1 3 3 3 4 5 7 4 3 7 8 5 10 8 12 2 5 5 3 4 2 7 12 7 5 6 7 8 7 4 6 7 5 6 6 6 5
4 2 4 0 4 3 2 3 2 3 2 2 4 4 6 5 6 6 6 8 4 14 10 5 7 9 14 10 15 11 12 14 10 4 7 5 5 4 4 5 4 5 5 5 5
6 5 3 2 1 6 4 2 1 2 1 2 3 8 6 4 3 6 8 6 4 11 6 6 2 4 9 11 15 14 19 13 15 11 10 10 7 4 6 6 4 5 6 5 4
2 1 5 2 2 5 0 0 2 1 3 2 4 6 5 4 3 6 7 11 8 5 4 4 4 4 4 5 7 11 13 10 5 7 5 4 4 4 7 7 4 3 4 5 5
Wind_Direction
313 321 326 328 332 334 333 329 328 328 329 327 326 329 330 330 342 283 262 226 209 246 281 299 318 305 346 259 211 49 239 232 228 231 221 225 242 250 286 254 305 322 165 161 131
331 322 313 316 320 321 318 314 314 316 317 318 320 320 323 336 334 282 246 253 247 252 321 296 307 309 274 268 229 207 254 235 268 250 213 235 240 167 352 351 315 335 44 143 140
312 319 314 314 319 318 316 312 306 306 307 306 312 316 324 355 303 250 95 74 63 58 212 225 230 326 237 200 218 238 242 267 273 292 290 232 245 204 169 262 224 270 184 171 161
304 311 309 303 308 307 307 309 311 309 308 314 308 314 323 87 287 205 185 63 359 18 25 347 198 219 248 214 203 253 265 276 283 287 304 247 275 243 207 234 283 323 246 169 171
291 298 294 297 300 302 301 303 305 302 301 302 306 311 326 245 243 257 280 300 318 326 237 217 232 205 225 232 239 245 264 273 283 286 292 286 260 227 232 238 298 309 212 216 193
292 289 292 293 293 299 299 299 296 298 298 296 297 303 293 268 251 241 243 265 258 232 243 204 218 212 265 236 234 287 270 271 260 259 264 284 264 212 216 199 284 310 201 212 206
312 295 291 295 293 292 294 294 294 294 292 291 293 291 264 251 289 285 286 262 229 221 256 233 215 173 191 246 253 260 265 273 260 261 258 304 243 242 206 135 278 293 272 198 190
296 294 288 291 289 290 292 290 291 289 289 288 287 262 259 292 261 288 279 270 238 235 231 213 187 233 225 298 313 329 239 252 254 243 240 226 257 239 181 154 228 287 294 205 199
289 283 281 283 287 289 290 291 289 290 290 283 58 146 261 304 257 216 181 238 333 248 197 206 209 212 195 223 248 209 250 240 264 226 260 199 247 220 191 165 186 267 283 218 191
282 284 285 290 287 290 296 297 295 307 321 80 83 359 276 255 265 229 228 252 245 228 225 187 210 223 200 208 222 215 207 241 247 221 214 241 235 250 190 180 197 252 260 221 126
298 299 299 294 300 294 350 351 14 349 15 216 217 236 293 277 278 253 267 277 219 202 214 186 210 216 205 211 225 217 225 219 241 238 289 223 230 225 184 184 175 234 233 112 82
302 304 300 285 256 102 81 95 148 202 302 239 248 252 260 279 293 279 258 188 185 221 197 199 221 216 218 213 211 224 231 239 258 258 200 256 239 209 176 174 177 152 143 120 103
286 291 296 207 129 56 99 134 133 88 308 296 226 237 242 154 266 282 181 184 226 229 199 205 231 188 187 191 200 210 215 231 225 202 215 205 258 149 133 106 103 81 78 83 99
266 278 191 141 82 152 80 14 59 93 61 285 330 293 284 228 264 223 211 201 219 262 250 222 222 177 188 204 192 213 219 246 225 268 210 197 196 178 163 141 132 129 128 113 99
207 201 148 145 157 84 121 1 67 56 30 297 301 169 297 225 280 256 202 221 270 256 242 253 184 180 190 205 194 224 189 200 197 232 165 173 193 160 164 139 148 120 108 77 93
134 138 141 92 55 58 26 62 55 42 270 323 314 335 352 308 267 301 327 219 251 284 225 254 232 191 194 202 189 142 194 206 174 238 178 187 105 157 175 165 147 137 102 98 94
107 89 66 52 133 346 63 52 34 104 334 304 326 332 331 288 307 332 317 318 339 314 343 336 125 280 129 169 180 191 193 167 203 168 149 133 106 51 332 148 145 146 116 105 84
98 85 68 74 358 69 57 48 66 240 258 308 309 312 310 359 317 322 326 345 302 343 316 24 0 14 17 225 178 164 262 150 124 84 79 354 55 50 35 74 91 90 93 85 75
95 21 52 337 43 70 72 50 194 336 322 313 321 15 319 334 345 313 358 345 321 337 336 332 351 47 356 143 107 156 54 255 110 94 86 87 76 96 56 72 88 104 95 81 65
89 66 0 325 69 67 74 135 165 307 317 299 22 14 300 310 338 9 334 319 333 327 341 296 300 12 336 3 25 93 64 101 27 94 102 53 69 73 47 98 117 107 107 96 90
58 57 272 358 58 48 102 133 12 315 313 298 322 296 276 300 294 309 314 301 350 316 326 299 305 337 50 18 352 29 86 132 113 74 114 129 79 355 49 138 148 139 141 133 124
89 55 291 54 55 33 90 95 283 330 311 297 276 260 270 295 292 311 317 301 318 309 328 325 358 47 66 261 256 280 346 96 118 333 53 66 69 13 69 89 111 113 125 131 129
94 212 334 77 105 64 180 146 315 3 320 316 284 353 280 286 308 314 321 267 320 333 348 325 11 27 354 0 16 22 348 3 71 73 39 86 93 48 68 70 73 106 112 109 117
85 55 340 44 334 126 131 68 26 283 279 297 284 307 316 323 291 308 322 304 331 351 354 13 6 54 96 73 326 15 5 351 87 73 83 57 112 80 80 91 95 101 120 131 144
47 235 178 276 337 89 155 84 24 343 295 284 322 4 355 305 324 346 320 312 317 4 358 51 31 20 43 40 70 55 25 30 57 143 89 122 86 84 95 117 131 130 117 121 115
131 134 19 160 223 78 1 70 36 272 327 322 319 334 334 314 321 318 331 358 8 325 21 346 32 0 41 17 45 52 24 30 57 57 67 87 62 52 83 84 100 130 135 131 135
190 65 107 305 90 79 163 71 262 213 276 268 302 307 336 302 277 267 279 290 278 312 315 54 103 46 1 359 342 32 347 357 19 44 117 97 131 115 81 74 68 102 132 137 136